Regional Weather Roundup
Issued by NWS

Home | Current Version | Previous Version | Graphics & Text | Print | Product List | Glossary On
Versions: 1 2 3 4 5 6 7 8 9 10 11 12 13 14 15 16 17 18 19 20 21 22 23 24 25 26 27 28 29 30 31 32 33 34 35 36 37 38 39 40 41 42 43 44 45 46 47 48 49 50
000
ASUS43 KMKX 301621
RWRWI

WISCONSIN REGIONAL WEATHER ROUNDUP
NATIONAL WEATHER SERVICE MILWAUKEE/SULLIVAN WI
1100 AM CDT THU OCT 30 2014

NOTE: "FAIR" INDICATES FEW OR NO CLOUDS BELOW 12,000 FEET WITH NO
SIGNIFICANT WEATHER AND/OR OBSTRUCTIONS TO VISIBILITY.

WIZ001-002-006>008-014>016-023>028-301700-
NORTHWEST WISCONSIN

CITY           SKY/WX    TMP DP  RH WIND       PRES   REMARKS
SUPERIOR ARPT  CLOUDY    39  33  79 CALM      30.10R
ASHLAND        CLOUDY    39  34  82 W7        30.09R WCI  34
HAYWARD        CLOUDY    39  32  76 W3        30.08S
SIREN          CLOUDY    41  34  77 N5        30.10R
CUMBERLAND     CLOUDY    39  34  81 CALM      30.08S
RICE LAKE      PTSUNNY   41  35  81 CALM      30.10R
CHETEK         CLOUDY    40  34  80 NW3       30.08S
LADYSMITH      CLOUDY    40  34  77 W3        30.09S
EAU CLAIRE     CLOUDY    42  34  73 CALM      30.08R
MENOMONIE      PTSUNNY   43  34  70 CALM      30.08S
NEW RICHMOND   PTSUNNY   45  35  68 CALM      30.08S
OSCEOLA        CLOUDY    43  35  74 NW3       30.12R
$$

WIZ003>005-009-010-017-018-301700-
NORTH CENTRAL WISCONSIN

CITY           SKY/WX    TMP DP  RH WIND       PRES   REMARKS
MANITOWISH WTR CLOUDY    36  33  87 NW6       30.04S WCI  31
ARBOR VITAE    CLOUDY    39  34  81 NW5       30.04S
WOODRUFF       CLOUDY    39  34  81 NW5       30.04S
RHINELANDER    CLOUDY    37  32  82 NW8       30.05S WCI  31
EAGLE RIVER    CLOUDY    38  31  77 W6        30.03S WCI  33
LAND O LAKES   CLOUDY    37  34  86 W5        30.04R WCI  34
PHILLIPS       CLOUDY    38  32  79 NW5       30.06R WCI  34
TOMAHAWK       CLOUDY    38  32  79 CALM      30.06S
MEDFORD        CLOUDY    37  33  85 W5        30.06S WCI  33
MERRILL        CLOUDY    37  34  88 W3        30.07R
$$

WIZ029-030-035-036-043>047-301700-
CENTRAL WISCONSIN

CITY           SKY/WX    TMP DP  RH WIND       PRES   REMARKS
WAUSAU         CLOUDY    38  33  82 W5        30.06S WCI  34
MOSINEE        CLOUDY    37  36  93 W6        30.07S WCI  33
MARSHFIELD     CLOUDY    43  36  76 NW6       30.06S
STEVENS POINT  CLOUDY    39  32  76 W5        30.07S
WAUPACA        CLOUDY    44  36  73 W3        30.08F
WAUTOMA        CLOUDY    43  36  76 CALM      30.09S
WISC RAPIDS    PTSUNNY   43  34  70 SW5       30.09S
CAMP DOUGLAS   CLOUDY    46  39  76 SW6       30.08S
$$

WIZ011>013-019>022-031-037>040-048>050-301700-
NORTHEAST WISCONSIN

CITY           SKY/WX    TMP DP  RH WIND       PRES   REMARKS
ANTIGO         CLOUDY    37  33  85 W7        30.05S WCI  32
SHAWANO        CLOUDY    43  35  73 W3        30.08S
OCONTO         CLOUDY    43  35  73 W3        30.07S
STURGEON BAY   CLOUDY    43  36  75 W6        30.07S
GREEN BAY      CLOUDY    44  36  73 SW8       30.08S
MANITOWOC      PTSUNNY   46  35  65 W9        30.08F
APPLETON       PTSUNNY   43  34  70 W8        30.08S
CLINTONVILLE   CLOUDY    41  34  75 W7        30.08S
OSHKOSH        CLOUDY    43  36  76 W5        30.08S
$$

WIZ032>034-041-042-053>061-301700-
SOUTHWEST WISCONSIN

CITY           SKY/WX    TMP DP  RH WIND       PRES   REMARKS
LA CROSSE      CLOUDY    43  36  76 S6        30.09R
SPARTA         CLOUDY    41  35  77 CALM      30.09S
VIROQUA        CLOUDY    43  36  75 SW3       30.07S
BOSCOBEL       CLOUDY    44  36  73 CALM      30.10F
PRAIRIE DU CHI CLOUDY    43  36  75 CALM      30.09S
PLATTEVILLE    PTSUNNY   46  37  71 SW8       30.10S
$$

WIZ056-057-062-063-064-067-068-301700-
SOUTH CENTRAL WISCONSIN

CITY           SKY/WX    TMP DP  RH WIND       PRES   REMARKS
REEDSBURG      CLOUDY    42  36  80 CALM      30.09S
BARABOO/DELLS  PTSUNNY   43  34  70 SW7       30.09S
LONE ROCK      CLOUDY    46  35  65 CALM      30.10S
MINERAL POINT  CLOUDY    46  36  66 S5        30.09S
MADISON        CLOUDY    45  35  68 SW5       30.10S
MIDDLETON      CLOUDY    47  34  61 W3        30.10S
WATERTOWN      PTSUNNY   43  36  75 W5        30.10S
MONROE         CLOUDY    45  34  65 SW8       30.09F
JANESVILLE     CLOUDY    45  36  70 CALM      30.10S
$$

WIZ051-052-058>065-066-070>072-301700-
SOUTHEAST WISCONSIN

CITY           SKY/WX    TMP DP  RH WIND       PRES   REMARKS
MILWAUKEE      PTSUNNY   44  34  67 SW7       30.10F
WAUKESHA       SUNNY     41  34  75 SW6       30.11F
MILWAUKEE/TIMM CLOUDY    45  34  65 W7        30.10F
RACINE         CLOUDY    46  34  62 SW5       30.12F
BURLINGTON     PTSUNNY   44  35  70 SW6       30.10S
KENOSHA        PTSUNNY   45  36  70 SW8       30.11F
FOND DU LAC    CLOUDY    44  36  73 SW3       30.09S
SHEBOYGAN      PTSUNNY   46  34  62 SW7       30.08F
WEST BEND      PTSUNNY   45  32  61 W10       30.09S
JUNEAU         PTSUNNY   42  36  79 SW8       30.10S
$$

LSZ147-162-301700-
LAKE SUPERIOR

STATION/POSITION TIME  TEMP    WIND        PRES    WAVE
                       AIR SEA DIR/SP/G            HT/PER
                 (UTC) (F)     (DEG/KT/KT) (MB)    (FT/S)
W MID LAKE BUOY  1550   41 45  310/ 10/ 12 1017.4S   1/ 3
DEVILS ISLAND    1600   41     310/ 10/ 12 1018.6S
PORT WING        1500   41     310/ 13/ 15 1018.6R
SAXON HARBOR     1500   40      CALM  /  6 1018.3R
$$

LMZ867-665-643>646-301700-
LAKE MICHIGAN

STATION/POSITION TIME  TEMP    WIND        PRES    WAVE
                       AIR SEA DIR/SP/G            HT/PER
                 (UTC) (F)     (DEG/KT/KT) (MB)    (FT/S)
CHAMBERS ISLAND  1500   44     230/  5/ 11 1017.9F
N MID LAKE BUOY  1550   44 50  170/  4/  4 1018.1F   0
NORTHPORT PIER   1500   45     220/  2/  6 1017.6F
KEWAUNEE LAKESHO 1600   45     250/  4/  6 1017.5F
SHEBOYGAN LAKESH 1600   45 50  230/  8/  9 1019.4F
PORT WASHINGTON  1500   45     270/  7/  9 1020.0S
ATWATER BUOY     1600   46     230/ 10/ 12 1020.1F
MILWAUKEE LAKESH 1600   45     250/  7/  8   N/A
S MID LAKE BUOY  1550   47 53  230/ 12/ 14 1020.1F   2/ 3
KENOSHA   LAKESH 1600   46     230/  5/ 10 1019.3F
$$

TC  - TEMPERATURE IN CELSIUS
VSB - VISIBILITY IN STATUTE MILES
WCI - WIND CHILL INDEX
HX  - HEAT INDEX




USA.gov is the U.S. government's official web portal to all federal, state and local government web resources and services.